Cloud_Cover
11 12 0 0 88 35 0 0 50 54 0 82 74 71 62 100 100 100 100 100 100 100 100 100 100 100 100 100 100 100 100 100 98 74 100 100 100 100 100 100 5 78 100
70 0 0 0 0 0 4 2 100 38 96 91 19 4 5 30 41 83 100 100 100 100 100 100 100 100 100 100 100 100 100 100 100 95 100 100 100 100 100 100 100 44 100
93 2 0 0 0 0 0 0 20 100 33 4 0 15 0 5 6 78 100 28 100 100 100 100 100 100 100 100 100 100 100 95 100 100 100 100 100 100 100 100 47 41 97
1 81 0 0 0 0 0 0 0 0 0 24 27 1 79 42 10 100 100 100 100 100 100 100 100 100 100 100 100 100 92 99 100 100 100 100 100 100 31 68 46 98 20
67 94 48 17 28 2 0 0 0 0 0 7 5 1 5 73 98 100 100 100 100 100 100 100 100 100 100 100 100 89 97 100 100 100 100 100 100 87 65 74 18 4 22
96 29 99 63 98 98 81 0 0 0 10 20 32 5 5 0 1 100 100 100 100 100 100 100 79 10 100 100 100 100 98 86 80 81 10 9 3 8 30 57 57 75 39
4 4 56 10 7 99 46 8 0 0 11 82 100 2 0 0 0 24 18 94 100 34 100 95 5 0 2 7 98 62 1 0 0 0 0 0 5 8 3 75 7 65 97
13 4 96 70 3 48 11 37 2 0 0 4 35 0 0 0 0 0 0 2 7 10 32 11 0 0 0 0 0 0 0 0 3 83 3 0 0 1 5 11 46 85 9
100 25 40 100 0 9 22 5 5 5 57 0 0 0 0 0 0 0 0 0 0 0 3 4 4 0 0 0 0 0 0 0 1 5 5 33 5 14 100 100 71 13 6
100 74 80 32 42 18 1 1 3 0 3 26 0 0 0 0 0 0 0 28 25 91 100 87 5 0 1 1 2 0 1 0 4 5 5 6 24 91 87 100 100 100 100
98 100 72 100 100 98 0 0 0 0 0 0 0 0 0 3 3 12 72 30 66 100 100 5 5 5 2 0 1 1 1 5 4 4 5 5 4 77 100 83 100 100 100
100 49 99 6 79 78 2 4 2 5 5 0 1 5 1 0 2 7 42 100 79 64 12 5 5 3 5 0 5 22 5 5 10 5 73 63 99 96 99 100 100 100 100
100 99 100 21 93 100 98 3 0 4 5 5 3 4 5 5 2 2 0 84 100 100 13 69 69 5 6 89 90 89 19 100 99 100 100 100 100 100 100 100 90 100 100
100 100 100 43 100 6 11 100 14 1 4 0 0 0 0 0 0 0 0 16 30 20 48 60 10 55 5 65 100 100 99 55 90 55 100 100 100 100 100 97 100 100 99
87 95 100 96 96 80 70 100 58 0 42 74 8 0 0 0 4 5 5 3 0 5 5 5 9 39 24 37 44 7 2 10 83 99 97 43 99 100 100 100 99 100 60
100 100 100 100 100 98 70 62 97 100 100 100 100 25 0 0 4 5 5 5 3 61 32 5 5 9 6 37 45 14 100 61 98 100 20 16 78 100 96 100 100 49 6
100 100 100 100 100 100 100 100 100 100 100 100 100 90 62 33 0 0 0 5 7 38 58 100 100 100 100 100 47 5 4 5 4 5 5 65 75 28 69 26 39 100 99
100 100 100 100 100 100 100 100 100 100 100 100 100 100 5 3 6 4 12 5 74 100 100 100 92 94 100 100 100 100 100 99 100 53 5 25 24 67 100 100 100 100 100
100 100 100 100 100 100 100 100 100 100 100 94 100 71 69 40 17 12 5 78 100 100 100 100 96 100 100 100 85 100 100 100 100 67 34 80 91 100 100 100 100 100 100
100 100 100 100 100 100 100 100 100 100 100 93 100 100 100 67 24 91 31 79 100 100 100 100 100 100 80 82 73 99 100 100 100 91 51 39 54 96 87 100 100 100 100
98 100 100 100 100 100 100 100 100 100 100 100 100 100 100 100 100 100 100 77 88 99 100 100 100 98 86 91 71 78 72 90 99 100 100 100 100 100 93 87 100 100 100
99 99 100 100 100 100 100 100 100 100 100 100 100 100 100 100 100 100 87 98 94 100 100 100 100 92 97 93 95 79 57 52 76 99 74 71 65 94 100 100 100 100 100
92 63 100 100 100 100 100 100 100 100 100 100 100 100 93 96 92 83 100 85 92 64 92 94 100 100 100 100 100 74 57 93 58 99 100 97 67 56 40 48 98 100 100
100 100 100 100 100 97 100 100 100 100 100 100 100 100 100 100 100 100 100 100 93 88 81 86 39 43 60 85 94 100 100 95 100 100 99 88 66 65 92 55 24 23 40
100 100 100 98 99 97 100 100 100 100 100 100 100 100 100 100 100 99 94 95 98 100 97 100 100 100 78 52 100 80 26 45 40 39 22 54 88 93 88 95 84 95 100
100 99 100 100 77 100 100 100 100 100 100 100 100 100 100 100 100 100 100 90 84 100 98 93 56 70 97 89 36 12 24 24 7 22 11 13 16 19 68 75 97 96 88